Location: Bathurst
(33.4193°S, 149.5775°E)
Time: 09:25:31
(UTC+10:00)

Vanguard 1 Rocket - Pass Details

Date: 17 June 2021
Orbit: 650 x 4226 km, 34.3° (Epoch: 02 August)

Event Time Altitude Azimuth Distance (km) Brightness Sun altitude
Rises 07:25:24 0° 321° (NW) 8,441 12.2 3.0°
Reaches altitude 10° 07:32:02 10° 327° (NNW) 7,262 12.0 4.2°
Maximum altitude 07:53:12 44° 30° (NNE) 3,775 11.4 7.9°
Drops below altitude 10° 08:05:43 10° 96° (E) 4,491 11.8 10.0°
Sets 08:08:40 0° 103° (ESE) 5,112 11.9 10.5°
